Flag for South Africa Weather past 2 weeks in Rustenburg, South Africa

Now
43 °F

Quite cool.


Feels Like: 40 °F
Forecast: 42 / 67 °F
Wind: 5 mph from South

Location: Lanseria Civ / Mil

Current Time: Jul 25, 2014 at 6:12:36 AM

Latest Report: Jul 25, 2014 at 5:00 AM


Visibility: N/A

Pressure: 30.21 "Hg

Humidity: 57%

Dew point: 28 °F

Location of RustenburgLocation

Historic Weather in Rustenburg — Graph

°F

Rustenburg temperature yesterday

Maximum temperature yesterday: 75 °F (at 1:00 PM)
Minimum temperature yesterday: 39 °F (at 7:00 AM)
Average temperature yesterday: 57 °F

Past Weeks' High & Low Weather Summary

 TemperatureHumidityPressure
High75 °F (Jul 24, 1:00 PM)93% (Jul 15, 7:00 AM)30.60 "Hg (Jul 15, 7:00 AM)
Low28 °F (Jul 12, 7:00 AM)10% (Jul 19, 4:00 PM)30.07 "Hg (Jul 18, 3:00 PM)
Average51 °F43%30.37 "Hg
* Reported Jul 10 5:00 AM — Jul 25 5:00 AM, Rustenburg, Weather by CustomWeather, © 2014

Note: Actual official high and low records may vary slightly from our data, if they occured in-between our weather recording intervals... More about our weather records

Advertising

Rustenburg weather history for previous 24 hours

 ConditionsComfort  
Time TempWeatherWind HumidityBarometerVisibility
5:00 AM
Jul 25
43 °FQuite cool.5 mph57%30.21 "HgN/A
4:00 AM43 °FQuite cool.No wind53%30.21 "HgN/A
3:00 AM45 °FQuite cool.No wind53%30.24 "HgN/A
2:00 AM45 °FQuite cool.No wind53%30.24 "HgN/A
1:00 AM48 °FCool.No wind43%30.27 "HgN/A
12:00 AM48 °FCool.No wind46%30.27 "HgN/A
11:00 PM
Jul 24
50 °FCool.3 mph40%30.27 "HgN/A
10:00 PM54 °FClear.No wind35%30.27 "Hg10 mi
9:00 PM61 °FClear.No wind27%30.27 "Hg10 mi
8:00 PM63 °FClear.3 mph25%30.24 "Hg10 mi
7:00 PM64 °FClear.5 mph24%30.24 "Hg10 mi
6:00 PM66 °FPassing clouds.7 mph21%30.24 "HgN/A
5:00 PM72 °FClear.12 mph17%30.21 "Hg10 mi
4:00 PM75 °FSunny.13 mph15%30.21 "Hg10 mi
3:00 PM75 °FSunny.13 mph14%30.21 "Hg10 mi
2:00 PM75 °FPassing clouds.13 mph15%30.24 "HgN/A
1:00 PM75 °FPassing clouds.12 mph16%30.27 "HgN/A
12:00 PM72 °FPassing clouds.10 mph20%30.30 "HgN/A
11:00 AM64 °FPassing clouds.6 mph28%30.36 "HgN/A
10:00 AM59 °FPassing clouds.3 mph36%30.36 "HgN/A
9:00 AM54 °FSunny.No wind44%30.36 "Hg10 mi
8:00 AM45 °FPassing clouds.3 mph66%30.33 "HgN/A
7:00 AM39 °FSunny.3 mph75%30.33 "Hg10 mi
6:00 AM41 °FSunny.No wind70%30.30 "Hg10 mi
Weather by CustomWeather, © 2014

See weather overviewHow to use our weather pages